DW7229 Weather Reports


time (UTC)temp
C
wind
direction
speed
KPH
gust
KPH
rain 1hr
cm
rain 24hr
cm
rain mn
cm
humidity
%
barometer
mb
20260904024024 18 0.0 0.0 0.00 0.00 0.00 91 1011.7
20260904023021 18 0.0 0.0 0.00 0.00 0.00 91 1011.7
20260904022018 18 0.0 0.0 0.00 0.00 0.00 91 1011.7
20260904021016 18 0.0 0.0 0.00 0.00 0.00 91 1011.7
20260904020020 18 0.0 0.0 0.00 0.00 0.00 90 1011.7
20260904015023 18 0.0 0.0 0.00 0.00 0.00 90 1012.0
20260904014026 18 0.0 0.0 0.00 0.00 0.00 90 1011.9
20260904013049 18 0.0 0.0 0.00 0.00 0.00 90 1012.0
20260904012032 18 0.0 0.0 0.00 0.00 0.00 90 1012.0
20260904011038 18 0.0 0.0 0.00 0.00 0.00 89 1011.9
20260904010021 19 0.0 0.0 0.00 0.00 0.00 89 1011.6
20260904005024 19 0.0 0.0 0.00 0.00 0.00 88 1011.5
20260904004028 19 0.0 0.0 0.00 0.00 0.00 86 1011.5
20260904003051 19 0.0 0.0 0.00 0.00 0.00 86 1011.4
20260904002016 19 0.0 0.0 0.00 0.00 0.00 85 1011.2
20260904001019 20 0.0 0.0 0.00 0.00 0.00 84 1011.0
20260904000023 20 0.0 0.0 0.00 0.00 0.00 83 1011.2
20260903235026 20 0.0 0.0 0.00 0.00 0.00 82 1010.9
20260903234029 20 0.0 0.0 0.00 0.00 0.00 82 1010.9
20260903233015 21 0.0 0.0 0.00 0.00 0.00 81 1011.1
20260903232018 21 0.0 0.0 0.00 0.00 0.00 80 1011.3
20260903231021 21 0.0 0.0 0.00 0.00 0.00 80 1011.2
20260903230025 22 0.0 0.0 0.00 0.00 0.00 80 1010.9
20260903225022 22 0.0 0.0 0.00 0.00 0.00 78 1011.1
20260903224039 22 0.0 0.0 0.00 0.00 0.00 78 1011.4
20260903223016 23 0.0 0.0 0.00 0.00 0.00 77 1011.5
20260903222020 23 0.0 0.0 0.00 0.00 0.00 74 1011.6
20260903221023 23 0.0 0.0 0.00 0.00 0.00 74 1011.5
20260903220046 24 0.0 0.0 0.00 0.00 0.00 73 1011.4
20260903215030 24 0.0 0.0 0.00 0.00 0.00 73 1011.5
20260903214014 25 0.0 0.0 0.00 0.00 0.00 71 1011.4
20260903213018 25 0.0 0.0 0.00 0.00 0.00 70 1011.4
20260903212021 23 0.0 0.0 0.00 0.00 0.00 75 1011.5
20260903211025 23 0.0 0.0 0.00 0.00 0.00 76 1011.6
20260903210048 23 0.0 0.0 0.00 0.00 0.00 73 1011.4
20260903205031 24 0.0 0.0 0.00 0.00 0.00 72 1011.5
20260903204016 26 0.0 0.0 0.00 0.00 0.00 68 1011.5
20260903203040 26 0.0 0.0 0.00 0.00 0.00 66 1011.5
20260903202043 26 0.0 0.0 0.00 0.00 0.00 66 1011.6
20260903201026 26 248 0.0 3.2 0.00 0.00 0.00 65 1011.6
20260903200030 26 0.0 0.0 0.00 0.00 0.00 68 1011.9
20260903195015 25 0.0 0.0 0.00 0.00 0.00 70 1012.1
20260903194019 23 0.0 0.0 0.00 0.00 0.00 74 1012.1
20260903193022 23 0.0 0.0 0.00 0.00 0.00 75 1012.1
20260903192025 23 0.0 0.0 0.00 0.00 0.00 75 1012.0
20260903191022 22 0.0 0.0 0.00 0.00 0.00 74 1012.3
20260903190020 22 248 0.0 1.6 0.00 0.00 0.00 75 1012.6
20260903185017 22 0.0 0.0 0.00 0.00 0.00 78 1012.5
20260903184020 22 0.0 0.0 0.00 0.00 0.00 77 1012.6
20260903183023 21 0.0 0.0 0.00 0.00 0.00 78 1012.7
20260903182047 20 0.0 0.0 0.00 0.00 0.00 81 1012.7
20260903181030 21 0.0 0.0 0.00 0.00 0.00 81 1013.1
20260903180015 21 0.0 0.0 0.00 0.00 0.00 81 1013.2
20260903175018 21 0.0 0.0 0.00 0.00 0.00 81 1013.2
20260903174022 21 0.0 0.0 0.00 0.00 0.00 80 1013.1
20260903173025 21 0.0 0.0 0.00 0.00 0.00 80 1013.0
20260903172028 21 0.0 0.0 0.00 0.00 0.00 81 1012.9
20260903171032 21 0.0 0.0 0.00 0.00 0.00 81 1012.9
20260903170017 20 0.0 0.0 0.00 0.00 0.00 82 1012.9
20260903165020 20 0.0 0.0 0.00 0.00 0.00 83 1013.1
20260903164023 20 0.0 0.0 0.00 0.00 0.00 82 1013.1
20260903163027 20 0.0 0.0 0.00 0.00 0.00 83 1013.1
20260903162030 20 0.0 0.0 0.00 0.00 0.00 83 1013.1
20260903161015 20 0.0 0.0 0.00 0.00 0.00 83 1013.1
20260903160018 20 0.0 0.0 0.00 0.00 0.00 82 1013.3
20260903155022 20 0.0 0.0 0.00 0.00 0.00 82 1013.6
20260903154025 20 0.0 0.0 0.00 0.00 0.00 85 1013.7
20260903153022 20 0.0 0.0 0.00 0.00 0.00 86 1013.7
20260903152019 20 0.0 0.0 0.00 0.00 0.00 88 1013.8
20260903151017 20 0.0 0.0 0.00 0.00 0.00 88 1013.8
20260903150020 19 0.0 0.0 0.00 0.00 0.00 90 1014.0
20260903145023 18 0.0 0.0 0.00 0.00 0.00 90 1014.0
20260903144026 18 0.0 0.0 0.00 0.00 0.00 92 1013.9
20260903143030 18 0.0 0.0 0.00 0.00 0.00 92 1014.2
20260903142015 18 0.0 0.0 0.00 0.00 0.00 92 1014.4
20260903141018 18 0.0 0.0 0.00 0.00 0.00 94 1014.4
20260903140022 18 0.0 0.0 0.00 0.00 0.00 95 1014.3
20260903135025 18 0.0 0.0 0.00 0.00 0.00 95 1014.3
20260903134028 18 0.0 0.0 0.00 0.00 0.00 95 1014.2
20260903133032 17 0.0 0.0 0.00 0.00 0.00 95 1014.2
20260903132017 17 0.0 0.0 0.00 0.00 0.00 95 1014.4
20260903131020 17 0.0 0.0 0.00 0.00 0.00 95 1014.3
20260903130024 17 0.0 0.0 0.00 0.00 0.00 95 1014.4
20260903125027 17 0.0 0.0 0.00 0.00 0.00 95 1014.7
20260903124030 17 0.0 0.0 0.00 0.00 0.00 95 1014.8
20260903123015 17 0.0 0.0 0.00 0.00 0.00 95 1014.9
20260903122119 17 0.0 0.0 0.00 0.00 0.00 95 1014.9
20260903121022 17 0.0 0.0 0.00 0.00 0.00 95 1015.2
20260903120025 16 0.0 0.0 0.00 0.00 0.00 95 1015.2
20260903115023 16 0.0 0.0 0.00 0.00 0.00 95 1015.3
20260903114020 16 0.0 0.0 0.00 0.00 0.00 94 1015.2
20260903113017 16 0.0 0.0 0.00 0.00 0.00 93 1015.2
20260903112020 16 0.0 0.0 0.00 0.00 0.00 93 1015.2
20260903111023 16 0.0 0.0 0.00 0.00 0.00 92 1015.4
20260903110047 16 0.0 0.0 0.00 0.00 0.00 92 1015.5
20260903105110 16 0.0 0.0 0.00 0.00 0.00 91 1015.3
20260903104015 16 0.0 0.0 0.00 0.00 0.00 90 1015.1
20260903103059 16 0.0 0.0 0.00 0.00 0.00 90 1015.1
20260903102022 16 0.0 0.0 0.00 0.00 0.00 90 1015.1
20260903101026 16 0.0 0.0 0.00 0.00 0.00 88 1015.2
20260903100049 16 0.0 0.0 0.00 0.00 0.00 87 1015.4
20260903095032 16 0.0 0.0 0.00 0.00 0.00 87 1015.3
20260903094017 16 0.0 0.0 0.00 0.00 0.00 87 1015.6
20260903093021 16 0.0 0.0 0.00 0.00 0.00 86 1015.7
20260903092024 16 0.0 0.0 0.00 0.00 0.00 86 1015.8
20260903091028 16 0.0 0.0 0.00 0.00 0.00 86 1015.9
20260903090030 16 0.0 0.0 0.00 0.00 0.00 85 1015.7
20260903085016 17 0.0 0.0 0.00 0.00 0.00 84 1015.7
20260903084039 17 0.0 0.0 0.00 0.00 0.00 83 1015.9
20260903083023 17 0.0 0.0 0.00 0.00 0.00 82 1015.8
20260903082026 17 0.0 0.0 0.00 0.00 0.00 82 1015.5
20260903081023 17 0.0 0.0 0.00 0.00 0.00 82 1015.5
20260903080020 17 0.0 0.0 0.00 0.00 0.00 83 1015.9
20260903075018 17 0.0 0.0 0.00 0.00 0.00 83 1015.8
20260903074015 17 0.0 0.0 0.00 0.00 0.00 84 1015.9
20260903073025 17 0.0 0.0 0.00 0.00 0.00 85 1015.9
20260903072028 17 0.0 0.0 0.00 0.00 0.00 85 1015.9
20260903071051 17 0.0 0.0 0.00 0.00 0.00 86 1016.2
20260903070016 17 0.0 0.0 0.00 0.00 0.00 86 1016.5
20260903065040 17 0.0 0.0 0.00 0.00 0.00 86 1016.8
20260903064023 17 0.0 0.0 0.00 0.00 0.00 86 1017.3
20260903063026 17 0.0 0.0 0.00 0.00 0.00 86 1017.5
20260903062030 17 0.0 0.0 0.00 0.00 0.00 86 1017.7
20260903061015 17 0.0 0.0 0.00 0.00 0.00 86 1018.1
20260903060018 17 0.0 0.0 0.00 0.00 0.00 86 1018.2
20260903055021 17 0.0 0.0 0.00 0.00 0.00 86 1018.3
20260903054025 17 0.0 0.0 0.00 0.00 0.00 86 1018.3
20260903053028 17 0.0 0.0 0.00 0.00 0.00 86 1018.2
20260903052031 17 0.0 0.0 0.00 0.00 0.00 86 1018.1
20260903051017 17 0.0 0.0 0.00 0.00 0.00 86 1018.3
20260903050020 17 0.0 0.0 0.00 0.00 0.00 86 1018.4
20260903045023 17 0.0 0.0 0.00 0.00 0.00 86 1018.5
20260903044026 17 0.0 0.0 0.00 0.00 0.00 86 1018.5
20260903043024 17 0.0 0.0 0.00 0.00 0.00 86 1018.5
20260903042015 17 0.0 0.0 0.00 0.00 0.00 86 1018.5
20260903041018 17 0.0 0.0 0.00 0.00 0.00 86 1018.7
20260903040116 17 0.0 0.0 0.00 0.00 0.00 86 1018.8
20260903035025 17 0.0 0.0 0.00 0.00 0.00 86 1018.9
20260903034028 17 0.0 0.0 0.00 0.00 0.00 86 1019.2
20260903033031 17 0.0 0.0 0.00 0.00 0.00 86 1019.2
20260903032017 17 0.0 0.0 0.00 0.00 0.00 86 1019.1
20260903031020 17 0.0 0.0 0.00 0.00 0.00 86 1019.1
20260903030043 17 0.0 0.0 0.00 0.00 0.00 86 1019.3
20260903025027 17 0.0 0.0 0.00 0.00 0.00 86 1019.2